GFSFLT2_925_temp_003.txt.gz
Temp
-1 -1 -1 -1 -0 -0 -1 -1 -1 -1 -0 -0 -0 -0 -1 -1 -0 -0 0 1 1 1 2 2 3 3 4
-2 -1 -1 -1 -1 -1 -1 -1 -1 -2 -2 -1 -1 -1 -1 -1 -1 -1 -1 -0 0 1 1 2 2 3 3
-2 -1 -1 -2 -2 -2 -2 -2 -2 -2 -2 -2 -2 -2 -2 -1 -1 -1 -1 -1 -1 -0 -0 0 1 1 2
-2 -3 -2 -2 -2 -2 -2 -3 -3 -3 -3 -3 -3 -2 -2 -2 -2 -2 -2 -2 -1 -1 -1 -0 -0 1 1
-2 -2 -2 -2 -3 -3 -3 -3 -3 -3 -3 -3 -3 -3 -3 -3 -3 -3 -3 -3 -2 -2 -1 -1 -1 0 1
-3 -2 -3 -3 -3 -4 -4 -4 -3 -3 -3 -4 -4 -4 -4 -4 -4 -3 -3 -2 -2 -2 -2 -1 -1 -0 -0
-3 -3 -4 -4 -5 -5 -4 -4 -4 -4 -4 -4 -4 -4 -4 -4 -4 -4 -3 -3 -3 -3 -2 -2 -1 -0 -0
-4 -4 -4 -4 -4 -4 -5 -5 -5 -5 -4 -4 -4 -4 -4 -4 -4 -4 -3 -3 -3 -2 -2 -1 -1 -1 -0
-4 -5 -5 -5 -5 -5 -5 -6 -5 -5 -5 -5 -4 -4 -5 -4 -4 -3 -3 -3 -3 -2 -2 -1 -1 -1 -0
-5 -6 -6 -6 -6 -6 -6 -7 -6 -5 -4 -5 -5 -5 -4 -3 -3 -4 -3 -3 -3 -3 -3 -2 -2 -2 -2
-6 -6 -6 -6 -6 -7 -7 -8 -7 -7 -6 -6 -6 -6 -5 -5 -4 -3 -3 -3 -4 -3 -3 -3 -3 -3 -2
-6 -6 -6 -7 -8 -8 -8 -8 -8 -8 -7 -7 -6 -6 -5 -4 -3 -3 -2 -3 -3 -3 -3 -3 -3 -2 -2
-6 -7 -8 -8 -8 -8 -8 -8 -8 -7 -7 -7 -7 -6 -6 -4 -3 -3 -3 -2 -3 -3 -2 -2 -3 -3 -3
-8 -8 -8 -8 -8 -8 -8 -7 -7 -6 -6 -6 -6 -5 -5 -4 -4 -3 -3 -2 -2 -2 -2 -1 -1 -1 -2
-8 -9 -8 -8 -8 -8 -8 -7 -7 -6 -6 -5 -5 -5 -5 -4 -3 -2 -1 -2 -2 -2 -2 -1 -1 -1 -1
-9 -9 -9 -9 -8 -8 -8 -8 -7 -6 -6 -5 -5 -5 -3 -1 -0 -2 -2 -2 -2 -2 -1 -1 -0 0 -1
-10 -9 -9 -8 -9 -8 -8 -8 -7 -6 -5 -5 -5 -4 -3 -2 -1 -1 -3 -3 -2 -1 -1 -1 -1 -1 -1

GFSFLT2_925_temp_006.txt.gz
Temp
1 1 1 1 1 1 1 -0 -0 0 0 -0 -0 -0 -0 -0 0 0 0 1 1 1 1 1 2 2 3
0 0 0 1 0 -0 -0 -0 -0 -0 -1 -1 -1 -1 -1 -0 -1 -0 -0 -0 -0 0 0 1 1 2 2
0 0 0 -0 -1 -0 -0 -1 -1 -1 -1 -1 -1 -1 -1 -1 -1 -0 -0 -1 -1 -1 -1 -0 0 1 2
-0 -1 -1 -1 -0 -0 -1 -1 -1 -1 -2 -2 -1 -1 -1 -1 -1 -1 -1 -1 -1 -1 -1 -1 -1 -0 0
-2 -1 -1 -0 -0 -1 -1 -2 -2 -2 -2 -2 -1 -2 -2 -2 -2 -2 -2 -2 -2 -2 -2 -1 -1 -0 -0
-2 -1 -1 -1 -2 -2 -3 -3 -2 -2 -2 -2 -2 -2 -2 -2 -2 -2 -2 -2 -2 -2 -2 -2 -1 -1 -0
-2 -2 -2 -2 -3 -4 -3 -3 -3 -3 -3 -3 -2 -2 -2 -2 -2 -2 -2 -2 -2 -2 -2 -2 -2 -1 -1
-3 -3 -3 -4 -4 -4 -4 -4 -4 -3 -3 -2 -3 -2 -2 -3 -3 -2 -2 -2 -2 -2 -2 -1 -1 -1 -1
-3 -3 -3 -4 -4 -5 -5 -4 -3 -4 -4 -3 -2 -3 -3 -3 -1 -1 -1 -2 -2 -2 -2 -2 -2 -1 -1
-3 -4 -4 -4 -4 -4 -5 -5 -5 -5 -3 -4 -4 -4 -3 -2 -1 -3 -2 -2 -1 -1 -2 -2 -2 -2 -2
-4 -4 -4 -3 -4 -5 -6 -6 -6 -6 -5 -6 -5 -5 -5 -4 -3 -2 -2 -1 -1 -1 -1 -1 -1 -1 -2
-5 -4 -4 -5 -6 -6 -7 -7 -7 -7 -7 -7 -6 -6 -5 -4 -3 -2 -1 -1 -1 -1 -2 -2 -2 -1 -1
-5 -6 -6 -6 -6 -6 -6 -6 -6 -6 -6 -6 -6 -6 -5 -4 -3 -3 -2 -2 -1 -2 -2 -2 -2 -2 -1
-6 -6 -6 -6 -6 -6 -6 -6 -6 -5 -5 -5 -5 -5 -5 -4 -3 -3 -2 -1 -1 -1 -2 -2 -1 -1 -1
-7 -7 -7 -6 -7 -6 -6 -6 -6 -5 -5 -4 -4 -4 -4 -4 -3 -2 -1 0 -1 -2 -2 -1 -0 -1 -1
-8 -7 -7 -7 -7 -6 -6 -6 -6 -5 -5 -4 -4 -3 -2 -1 -1 -1 -0 -1 -1 -2 -2 -1 -0 -0 -1
-8 -8 -8 -7 -7 -7 -6 -6 -5 -5 -5 -4 -4 -3 -2 -2 -1 -1 -2 -2 -2 -1 -1 -1 -1 -1 -1

GFSFLT2_925_temp_009.txt.gz
Temp
2 1 1 1 1 1 0 0 0 1 1 1 1 1 1 0 1 1 1 1 1 1 1 2 2 2 3
1 1 1 1 1 0 0 0 0 0 0 0 0 0 0 0 0 0 1 0 1 0 1 1 1 1 2
0 0 0 -0 -1 -0 -0 0 -0 -0 -0 -1 -1 -0 -0 0 0 0 0 0 0 0 -0 -0 0 1 1
-1 -1 -1 -1 -0 -0 -0 -1 -1 -1 -2 -1 -1 -1 -0 -0 -1 -1 -1 -1 -1 -0 -0 -0 -1 -0 0
-2 -2 -1 -1 -1 -1 -1 -2 -2 -2 -2 -2 -1 -2 -2 -2 -1 -1 -1 -1 -1 -1 -1 -1 -1 -1 -0
-2 -2 -2 -1 -2 -2 -3 -3 -3 -3 -2 -3 -3 -2 -2 -2 -1 -1 -1 -1 -1 -1 -1 -1 -1 -1 -1
-1 -2 -2 -2 -3 -4 -3 -3 -4 -3 -3 -3 -3 -2 -2 -2 -2 -1 -2 -1 -1 -1 -1 -1 -1 -1 -1
-2 -2 -3 -4 -4 -4 -4 -4 -4 -4 -3 -3 -3 -3 -2 -3 -3 -2 -1 -1 -0 -0 -0 -0 -1 -1 -1
-3 -3 -3 -3 -3 -3 -4 -4 -4 -4 -4 -4 -3 -3 -4 -4 -3 -1 -0 -1 -1 -1 -0 0 0 -0 -1
-4 -4 -3 -3 -3 -3 -3 -5 -5 -5 -4 -4 -5 -5 -4 -3 -2 -3 -3 -2 -1 -1 -0 0 -0 -1 -1
-4 -4 -4 -4 -4 -4 -5 -5 -5 -6 -5 -5 -5 -5 -6 -5 -4 -4 -3 -3 -2 -2 -2 -1 -0 -1 -1
-4 -5 -5 -5 -5 -6 -6 -6 -6 -6 -6 -6 -6 -6 -5 -5 -4 -3 -3 -3 -3 -2 -2 -2 -1 -1 -1
-5 -5 -5 -6 -6 -6 -6 -6 -6 -6 -6 -5 -6 -5 -5 -5 -4 -4 -3 -3 -3 -3 -1 -1 -2 -2 -2
-6 -6 -6 -6 -6 -6 -6 -6 -6 -5 -5 -5 -5 -5 -5 -4 -4 -4 -3 -3 -3 -2 -1 -2 -2 -1 -1
-7 -7 -7 -7 -6 -7 -6 -6 -6 -5 -5 -5 -4 -4 -4 -4 -3 -3 -3 -2 -1 -1 -2 -2 -1 -1 -1
-7 -7 -7 -7 -7 -6 -6 -6 -6 -5 -5 -5 -5 -4 -3 -2 -1 -2 -2 -2 -2 -2 -2 -1 -1 -0 -1
-8 -7 -7 -7 -7 -7 -6 -6 -6 -5 -5 -5 -4 -4 -3 -3 -2 -2 -3 -3 -3 -2 -1 -1 -1 -1 -1

GFSFLT2_925_temp_012.txt.gz
Temp
0 0 0 0 0 -0 0 -0 -0 -0 0 1 1 1 1 1 1 1 1 1 1 1 1 1 2 2 2
-1 -1 -1 -1 -1 -1 -1 -1 -1 -0 0 0 0 0 0 0 0 0 0 0 1 0 1 1 1 2 2
-2 -2 -2 -2 -2 -2 -1 -1 -1 -1 -1 -1 -1 -1 -1 -0 0 0 0 0 0 0 0 0 1 1 1
-2 -3 -3 -2 -2 -2 -2 -2 -2 -3 -3 -2 -2 -2 -2 -1 -2 -1 -1 -1 -0 -0 0 0 0 0 1
-3 -3 -3 -2 -3 -2 -3 -3 -3 -3 -3 -3 -3 -3 -3 -3 -3 -2 -2 -1 -0 -0 0 0 0 0 0
-3 -2 -3 -3 -3 -3 -4 -4 -4 -3 -3 -4 -4 -4 -4 -3 -3 -2 -2 -1 -0 -1 -0 0 0 0 1
-3 -3 -3 -3 -3 -4 -4 -4 -4 -4 -4 -4 -4 -4 -4 -4 -4 -3 -2 -2 -1 -1 0 0 0 1 0
-3 -3 -3 -3 -4 -3 -3 -4 -4 -4 -4 -5 -4 -4 -4 -4 -4 -4 -3 -2 -0 -0 -0 -0 0 0 1
-3 -3 -3 -3 -3 -3 -4 -4 -4 -4 -4 -5 -5 -5 -5 -5 -4 -3 -2 -2 -3 -2 -2 -1 -0 0 1
-4 -4 -4 -4 -4 -4 -4 -6 -6 -5 -4 -6 -6 -6 -5 -4 -3 -4 -4 -4 -4 -3 -2 -2 -1 -1 -1
-5 -5 -5 -5 -5 -6 -6 -6 -6 -6 -6 -6 -6 -6 -6 -6 -5 -5 -4 -4 -4 -4 -4 -3 -2 -2 -1
-5 -5 -6 -6 -6 -6 -6 -7 -7 -7 -6 -6 -6 -6 -6 -5 -5 -4 -4 -4 -4 -4 -4 -3 -3 -2 -1
-6 -6 -6 -6 -7 -7 -7 -7 -7 -7 -6 -6 -6 -6 -6 -5 -5 -5 -4 -4 -4 -3 -3 -3 -3 -2 -2
-7 -7 -7 -7 -7 -7 -7 -7 -7 -6 -6 -6 -6 -6 -6 -5 -5 -5 -4 -4 -3 -3 -3 -3 -2 -2 -2
-7 -7 -7 -7 -7 -7 -7 -7 -7 -7 -6 -6 -5 -5 -5 -6 -5 -4 -4 -3 -3 -3 -3 -3 -3 -2 -2
-8 -8 -8 -8 -8 -7 -7 -7 -7 -6 -6 -6 -6 -6 -5 -4 -3 -4 -3 -3 -3 -3 -3 -3 -2 -1 -1
-8 -8 -8 -8 -7 -8 -7 -7 -7 -6 -6 -6 -6 -5 -4 -4 -2 -2 -3 -3 -3 -3 -3 -2 -2 -2 -1